Wind_Speed
18 18 17 16 18 15 13 14 14 14 14 14 14 14 14 13 11 10 9 9 9 9 10 10 10 10 11 11 11 11 11 12 12 12 11 11 11 11 11 12 11 11 10 10 9 10 10 9 9
18 18 18 18 17 14 13 14 14 14 14 15 14 14 14 13 12 11 10 10 10 10 11 11 11 11 11 11 11 12 13 13 12 12 12 11 11 11 11 11 12 12 11 10 10 10 10 10 9
17 18 18 18 15 14 13 14 14 14 14 14 15 14 13 13 12 11 11 11 11 11 11 11 10 11 11 11 11 13 13 13 12 12 12 11 11 11 11 11 11 11 11 10 11 10 10 10 9
18 18 19 17 15 15 14 14 14 14 14 14 15 15 14 13 12 12 11 12 11 11 11 11 10 11 12 12 11 12 12 12 12 12 11 11 10 10 10 10 10 10 10 10 10 10 10 9 9
17 18 18 15 15 16 15 15 14 15 14 14 15 14 14 13 13 12 12 12 12 11 11 11 11 11 12 12 12 12 12 12 12 12 11 11 11 10 10 10 10 10 10 9 9 9 9 9 8
18 18 15 15 15 16 16 16 16 15 15 14 14 15 14 14 13 12 12 12 11 11 11 12 12 12 12 13 12 12 12 12 12 12 12 11 10 10 10 11 10 10 9 9 8 8 8 8 7
17 16 15 15 15 16 16 17 17 16 15 15 14 15 15 14 14 13 12 11 11 11 12 12 12 12 13 13 13 13 12 12 13 12 11 10 10 10 10 11 11 10 9 9 9 8 7 7 6
16 16 15 15 16 15 16 17 17 17 16 15 15 15 14 14 13 13 12 11 11 11 12 13 13 13 13 12 12 12 12 12 12 12 10 9 9 10 10 11 10 10 8 8 8 7 6 6 6
15 15 14 15 15 15 16 17 17 17 16 15 14 15 14 13 12 12 12 12 11 11 12 12 13 13 12 12 12 12 12 11 11 11 11 10 10 11 11 10 10 9 8 7 6 6 5 5 5
13 12 13 14 14 15 15 16 17 16 16 15 15 14 14 13 13 12 12 11 11 10 11 12 12 12 12 12 11 11 11 11 11 11 11 11 12 11 11 10 9 8 7 6 5 5 4 3 3
11 11 12 13 13 14 15 16 16 16 15 14 14 14 13 13 13 12 11 11 11 10 10 11 11 11 12 12 11 11 11 11 11 10 10 11 11 11 10 9 8 7 7 6 5 4 3 2 3
9 10 11 12 12 13 14 15 16 16 16 14 14 13 13 12 12 12 11 11 10 10 10 10 10 10 11 11 11 11 10 10 10 10 10 10 10 9 8 7 7 6 5 4 4 3 2 1 2
8 9 10 11 11 12 13 14 15 15 15 15 14 13 12 12 11 11 11 10 10 10 9 9 9 9 10 10 10 10 9 9 9 9 9 9 8 7 6 5 5 5 4 3 2 1 0 0 1
7 7 8 9 10 11 12 13 13 14 14 14 14 13 12 11 11 10 10 10 10 10 9 9 9 9 9 9 9 8 8 8 8 8 7 6 6 6 5 4 4 3 2 2 2 1 1 1 1
6 6 6 7 8 9 11 12 13 13 13 13 12 12 11 11 10 10 10 10 10 10 9 9 9 9 8 8 8 8 7 7 7 7 6 6 5 4 4 3 2 2 2 2 1 1 1 1 2
4 5 4 5 6 8 10 10 11 11 11 12 11 11 10 10 10 10 9 9 10 10 9 8 8 8 8 7 7 7 7 7 6 6 6 5 4 4 3 3 3 2 2 1 1 1 1 2 2
3 3 2 3 4 6 8 8 9 10 10 10 10 9 9 9 9 9 9 9 9 9 9 8 8 8 8 7 7 6 6 6 6 5 5 5 4 4 3 3 3 2 2 2 1 2 2 2 2
4 2 1 1 3 5 6 7 7 8 9 9 9 8 8 8 8 8 8 8 8 8 8 8 7 7 8 7 7 6 6 5 5 5 5 4 4 4 3 3 3 3 2 2 2 2 2 2 3
6 4 2 1 1 3 4 5 6 6 7 8 8 7 7 7 7 8 8 8 8 8 8 7 7 7 7 7 7 7 6 6 6 6 5 5 5 4 4 4 4 3 2 2 2 3 3 4 4
8 5 4 3 1 0 2 3 4 5 6 6 7 6 6 6 6 7 7 7 7 7 7 7 6 6 6 6 6 6 7 6 6 7 6 5 5 5 5 5 5 4 3 3 4 4 5 5 6
11 9 7 4 3 1 1 2 3 3 4 5 6 5 6 6 6 6 7 7 7 7 6 6 5 5 5 5 5 5 5 5 6 6 6 5 5 5 5 5 5 5 4 4 5 5 6 7 8
12 11 9 6 4 2 1 1 1 2 3 4 5 5 5 5 5 6 6 6 6 6 6 6 5 5 5 5 5 4 4 4 5 5 5 5 5 5 6 6 6 6 6 5 6 6 7 7 8
15 13 11 8 6 4 3 1 1 0 2 3 4 4 5 5 4 5 5 5 5 6 6 5 5 4 4 5 4 4 4 4 4 4 4 4 5 4 5 6 6 6 6 7 7 7 7 8 9
17 14 13 10 8 7 6 4 2 1 0 2 2 3 3 4 4 4 4 4 5 5 5 5 5 4 4 4 4 4 3 3 4 4 4 4 4 4 5 6 6 6 6 7 7 7 8 8 9
19 16 13 11 11 10 8 6 4 3 2 1 1 2 2 3 3 4 4 4 4 4 3 3 4 4 4 4 4 4 3 3 4 4 4 4 5 5 6 6 7 6 7 7 7 7 8 9 9
21 18 16 13 12 11 10 7 4 4 3 2 2 1 2 2 3 3 3 3 4 4 4 3 3 3 3 3 3 3 3 3 4 4 4 4 5 6 6 7 7 7 7 7 7 8 9 9 10
23 21 18 16 14 12 11 9 6 5 4 4 3 3 3 3 3 3 3 3 3 3 3 3 2 3 3 3 2 2 3 3 4 4 5 5 5 6 7 7 7 7 7 8 8 9 10 11 11
24 22 22 19 17 14 12 10 8 7 6 5 4 4 4 4 4 4 3 2 2 3 3 2 2 2 3 3 2 2 3 3 4 5 5 5 6 7 7 7 7 8 8 9 10 10 11 12 13
27 25 24 21 19 16 13 12 11 9 8 7 6 5 4 5 5 4 3 3 3 3 3 2 2 2 3 3 2 3 4 4 4 5 5 6 7 7 8 9 9 9 9 10 11 11 12 13 14
28 26 24 22 21 19 16 14 13 11 9 9 7 6 6 5 6 5 4 3 3 3 3 3 3 3 3 3 3 4 5 5 5 6 6 7 8 8 9 10 10 10 10 11 12 13 13 14 15
Wind_Direction
64 67 70 73 72 73 78 76 73 74 76 75 76 78 78 79 81 82 87 93 96 102 102 107 110 114 116 119 123 124 125 123 125 124 125 121 119 120 122 120 124 129 135 137 138 143 146 145 145
65 67 70 72 74 74 76 76 74 73 75 76 77 76 75 75 77 80 86 90 93 97 100 103 107 113 118 119 121 123 123 125 124 123 124 121 120 122 125 122 122 126 128 123 126 131 140 144 143
66 67 68 70 72 76 77 76 72 73 76 76 76 75 74 73 74 78 85 90 93 95 97 99 107 110 116 119 120 120 121 124 124 123 122 120 122 125 127 124 123 127 125 122 122 127 133 140 141
65 67 65 66 69 72 73 74 73 74 75 77 77 75 74 73 75 81 88 92 95 95 97 100 106 108 111 113 115 115 115 118 120 123 123 121 124 130 128 122 123 126 126 124 124 128 133 137 139
65 65 63 63 67 70 72 74 75 75 76 78 77 73 72 73 75 80 88 94 94 95 99 102 106 109 107 109 112 113 113 114 118 122 123 120 123 128 130 128 129 128 130 131 131 133 134 139 138
66 67 67 66 67 69 70 73 73 72 75 77 76 75 74 74 75 80 88 95 94 94 97 104 106 106 104 106 108 109 112 111 112 114 117 120 126 128 130 136 136 133 131 131 133 134 136 139 139
70 71 72 68 66 67 69 71 70 71 74 75 76 77 75 74 77 80 88 95 96 97 100 101 103 103 103 104 106 109 110 110 111 110 113 119 124 124 129 136 137 137 137 135 133 132 135 136 138
73 71 69 67 65 66 68 70 69 69 71 73 75 77 76 76 78 80 85 93 97 100 100 101 102 103 103 105 109 107 106 109 109 108 107 114 122 125 129 134 136 136 136 135 136 135 136 135 132
75 72 69 68 67 65 66 68 68 68 70 71 73 75 75 77 79 80 83 89 95 98 97 99 101 103 103 104 106 108 108 110 110 110 107 112 119 124 125 124 127 129 131 130 130 132 133 132 133
77 77 71 69 67 65 64 66 66 66 67 70 72 74 74 76 79 80 80 86 93 97 97 98 100 103 104 103 103 104 108 111 111 112 110 110 112 112 116 120 120 121 123 125 122 128 135 141 143
78 80 74 70 66 65 64 64 65 65 65 70 71 71 71 75 77 79 80 85 91 95 96 97 98 103 105 102 100 98 101 109 112 111 106 106 109 111 114 117 116 115 115 113 114 119 126 156 173
77 80 76 71 67 66 65 64 63 63 65 69 71 70 70 71 73 76 80 86 88 93 96 95 97 104 106 103 101 99 98 101 103 104 104 104 105 106 109 112 112 115 113 110 105 105 102 141 182
82 78 76 73 68 65 65 63 61 62 62 63 68 69 67 69 72 75 76 82 88 92 95 93 95 103 107 107 105 102 100 97 98 101 103 107 109 107 108 116 124 123 125 123 107 99 91 244 240
89 77 73 70 68 64 63 61 60 61 60 60 65 68 68 68 70 73 76 79 87 91 93 95 97 105 108 106 106 105 106 98 99 99 100 107 111 109 105 104 116 122 122 112 94 78 46 358 273
94 81 69 63 63 63 63 61 59 59 59 59 62 66 67 70 73 74 76 79 83 86 89 92 93 101 105 102 99 99 102 98 95 95 96 99 107 107 100 93 97 116 128 122 105 67 29 351 313
106 82 60 56 58 59 63 62 58 57 58 59 61 65 68 70 75 77 78 79 80 81 84 88 87 90 96 97 98 101 94 91 88 89 90 94 97 96 85 76 78 87 94 105 103 43 15 349 330
116 100 81 68 61 56 59 61 58 57 56 57 59 63 67 70 75 77 77 77 77 77 80 83 85 86 92 94 90 91 87 84 80 76 81 87 89 85 79 66 58 72 91 94 67 38 17 4 349
184 165 135 86 78 63 58 56 55 56 54 56 55 56 61 67 70 73 74 74 74 73 75 78 80 83 84 79 80 79 78 77 70 67 70 74 74 75 72 62 55 60 66 73 59 28 12 357 345
193 190 204 180 84 58 54 52 49 50 51 53 52 52 53 59 66 69 70 70 69 66 67 69 72 75 76 73 76 77 75 71 64 61 70 73 73 70 62 60 60 53 42 32 24 3 350 333 327
208 209 216 202 208 42 58 55 45 44 43 43 46 48 48 53 63 66 66 65 65 61 59 63 67 69 72 74 75 73 67 63 59 58 61 64 58 54 50 48 41 31 18 4 354 344 341 335 324
216 217 217 212 202 206 99 63 39 42 40 40 40 43 45 52 55 60 63 62 61 58 57 58 64 70 68 68 68 66 60 56 57 60 60 60 52 42 36 37 28 25 11 356 343 335 333 332 328
218 220 217 212 202 225 203 44 13 33 40 45 45 47 43 49 52 53 55 56 53 52 50 55 63 68 66 58 59 57 54 53 56 57 54 50 44 37 32 28 25 19 12 359 347 338 332 329 326
219 219 217 217 215 224 237 218 248 323 47 55 51 48 44 44 47 51 50 48 49 51 47 51 53 60 64 56 55 51 54 56 53 49 44 39 33 28 24 21 16 11 5 358 351 344 338 333 330
220 220 221 222 224 232 233 219 223 254 66 71 51 44 34 33 35 35 34 37 43 45 43 48 56 55 50 43 40 37 41 51 45 37 31 26 23 20 15 11 9 5 2 355 350 346 340 337 334
218 218 224 229 231 237 236 228 216 225 215 176 44 19 14 13 16 13 15 18 22 26 34 44 55 51 45 45 43 35 31 32 25 20 17 14 12 11 7 2 2 360 358 353 349 347 343 338 335
217 216 219 226 235 241 241 234 223 215 212 216 231 279 320 340 350 351 356 1 6 15 32 45 53 50 44 41 33 31 20 15 12 7 360 354 354 355 352 349 348 348 348 346 343 340 337 335 332
217 218 219 225 229 232 240 235 220 222 225 229 239 262 290 308 321 331 336 342 352 2 16 32 37 29 23 15 15 18 14 9 7 359 349 345 345 342 338 337 337 338 339 337 335 333 331 329 329
219 219 219 219 225 230 238 238 231 232 236 239 241 257 276 286 294 304 307 320 333 345 351 4 17 10 9 4 7 9 6 2 358 353 346 345 339 336 337 337 335 333 330 328 326 325 323 321 321
220 220 220 220 222 225 235 240 238 234 237 244 247 257 263 272 287 290 285 294 312 322 322 337 346 343 351 352 344 346 346 343 340 345 347 342 337 333 334 334 330 326 323 320 319 318 319 319 319
224 223 222 222 226 225 228 239 241 239 240 242 246 254 260 267 276 277 270 279 291 300 310 325 325 327 325 326 322 326 327 328 332 331 333 334 333 332 333 337 335 329 322 317 316 317 319 318 318
Height
5887 5886 5885 5885 5884 5885 5883 5881 5880 5878 5877 5875 5874 5873 5872 5872 5872 5873 5870 5868 5868 5867 5867 5866 5866 5866 5866 5866 5866 5867 5867 5868 5868 5869 5870 5871 5871 5872 5872 5873 5874 5875 5875 5875 5876 5877 5880 5882 5883
5889 5888 5888 5887 5887 5887 5885 5883 5881 5880 5878 5876 5875 5874 5874 5873 5872 5871 5870 5869 5869 5869 5869 5868 5868 5868 5868 5868 5868 5868 5869 5869 5870 5871 5872 5872 5873 5873 5874 5874 5875 5876 5876 5876 5876 5878 5880 5883 5884
5891 5890 5891 5890 5889 5889 5887 5885 5883 5881 5880 5878 5877 5876 5875 5874 5873 5872 5872 5871 5871 5871 5870 5870 5870 5870 5869 5870 5870 5870 5871 5871 5872 5873 5873 5874 5874 5875 5875 5876 5877 5877 5877 5878 5878 5879 5882 5884 5885
5893 5893 5894 5893 5892 5890 5889 5887 5885 5883 5882 5880 5879 5878 5877 5876 5875 5874 5873 5873 5873 5873 5872 5872 5872 5872 5872 5872 5872 5872 5872 5873 5873 5874 5875 5875 5875 5876 5876 5877 5878 5879 5879 5880 5881 5882 5884 5885 5886
5896 5896 5897 5896 5894 5892 5890 5888 5887 5885 5884 5882 5881 5880 5879 5878 5877 5876 5875 5875 5875 5875 5874 5874 5874 5874 5874 5874 5874 5874 5874 5875 5875 5875 5876 5876 5877 5877 5877 5878 5880 5880 5881 5882 5883 5884 5885 5887 5888
5899 5899 5900 5898 5897 5895 5893 5890 5889 5887 5885 5884 5883 5882 5881 5880 5879 5878 5877 5877 5877 5876 5876 5876 5876 5876 5876 5876 5876 5876 5876 5876 5877 5877 5877 5877 5877 5877 5877 5879 5881 5882 5883 5884 5885 5886 5887 5888 5889
5903 5903 5902 5901 5899 5897 5895 5893 5891 5889 5888 5887 5885 5884 5883 5882 5881 5880 5880 5879 5879 5878 5878 5878 5878 5878 5878 5878 5878 5878 5878 5878 5879 5879 5879 5878 5878 5878 5878 5880 5882 5883 5884 5885 5886 5887 5888 5889 5890
5905 5906 5905 5903 5901 5899 5897 5895 5893 5891 5890 5889 5888 5887 5886 5885 5884 5883 5882 5881 5881 5881 5880 5880 5880 5880 5880 5880 5880 5880 5880 5880 5880 5880 5880 5879 5879 5879 5880 5881 5883 5885 5886 5887 5887 5888 5889 5890 5890
5907 5909 5908 5905 5904 5902 5899 5897 5896 5894 5893 5892 5890 5889 5888 5887 5886 5885 5885 5884 5884 5883 5883 5882 5882 5882 5882 5882 5882 5882 5882 5882 5882 5882 5882 5881 5880 5881 5882 5883 5885 5886 5887 5888 5889 5889 5890 5891 5891
5910 5911 5909 5907 5906 5904 5902 5900 5898 5897 5895 5894 5893 5892 5891 5890 5888 5888 5887 5886 5886 5886 5885 5885 5885 5885 5884 5884 5884 5885 5884 5884 5884 5884 5884 5883 5883 5883 5884 5885 5887 5888 5889 5889 5890 5890 5891 5891 5892
5912 5912 5910 5909 5907 5906 5904 5902 5901 5899 5898 5897 5895 5894 5893 5892 5891 5890 5890 5889 5888 5888 5888 5887 5887 5887 5887 5887 5887 5887 5886 5886 5886 5886 5886 5886 5885 5886 5887 5887 5888 5889 5890 5890 5891 5891 5892 5892 5892
5914 5913 5912 5911 5909 5907 5906 5905 5903 5902 5901 5899 5897 5896 5895 5895 5893 5893 5892 5891 5891 5890 5890 5890 5889 5889 5889 5889 5889 5889 5889 5888 5888 5888 5888 5889 5889 5889 5889 5890 5890 5891 5891 5892 5892 5892 5892 5892 5892
5916 5915 5914 5913 5911 5910 5908 5907 5905 5904 5903 5901 5900 5899 5898 5897 5896 5895 5894 5893 5893 5892 5892 5892 5891 5891 5891 5892 5892 5892 5891 5891 5890 5891 5891 5891 5891 5891 5892 5892 5892 5892 5892 5893 5893 5893 5893 5893 5892
5917 5916 5915 5914 5913 5912 5910 5909 5908 5906 5905 5903 5902 5901 5900 5899 5898 5897 5896 5895 5895 5894 5894 5893 5893 5893 5893 5893 5894 5894 5893 5893 5893 5893 5893 5893 5893 5893 5893 5893 5893 5893 5894 5894 5894 5893 5893 5893 5893
5918 5918 5917 5916 5915 5914 5913 5912 5910 5909 5907 5906 5905 5903 5902 5902 5901 5900 5899 5898 5897 5897 5896 5896 5895 5895 5895 5895 5895 5895 5895 5895 5895 5895 5895 5894 5894 5894 5894 5894 5894 5894 5894 5894 5894 5894 5894 5893 5893
5918 5919 5919 5919 5917 5916 5916 5915 5913 5911 5910 5908 5907 5906 5905 5904 5903 5902 5901 5900 5899 5899 5898 5897 5897 5896 5896 5896 5896 5896 5896 5896 5896 5896 5896 5896 5896 5895 5895 5895 5895 5894 5894 5894 5894 5894 5894 5893 5892
5919 5921 5921 5920 5918 5918 5917 5917 5915 5913 5912 5911 5910 5908 5907 5906 5905 5904 5903 5902 5902 5901 5900 5899 5899 5898 5898 5898 5897 5897 5897 5897 5897 5897 5897 5897 5897 5896 5896 5896 5895 5895 5895 5894 5894 5894 5893 5893 5892
5921 5921 5921 5920 5920 5919 5918 5918 5916 5915 5914 5913 5912 5910 5909 5908 5907 5906 5905 5904 5904 5903 5902 5901 5900 5900 5899 5899 5899 5899 5898 5898 5898 5898 5898 5897 5897 5897 5897 5896 5896 5895 5895 5894 5894 5894 5893 5892 5892
5919 5920 5921 5920 5920 5920 5919 5918 5918 5916 5915 5915 5914 5912 5911 5910 5909 5908 5907 5906 5905 5904 5904 5903 5902 5901 5901 5901 5900 5900 5900 5899 5899 5899 5898 5898 5898 5897 5897 5897 5896 5895 5895 5894 5894 5893 5892 5892 5891
5918 5919 5920 5920 5920 5920 5919 5919 5918 5917 5917 5916 5915 5914 5913 5912 5911 5910 5909 5908 5907 5906 5905 5904 5904 5903 5903 5902 5902 5901 5901 5900 5900 5899 5899 5899 5898 5898 5897 5897 5896 5895 5895 5894 5894 5893 5892 5891 5890
5916 5918 5919 5919 5919 5919 5920 5920 5920 5919 5918 5917 5916 5915 5914 5913 5912 5911 5910 5909 5908 5907 5906 5906 5905 5904 5904 5903 5903 5902 5902 5901 5901 5900 5900 5899 5899 5898 5898 5897 5896 5895 5894 5894 5893 5892 5891 5890 5889
5915 5916 5918 5918 5919 5920 5921 5921 5921 5919 5918 5917 5916 5916 5915 5914 5913 5912 5912 5911 5910 5909 5908 5907 5906 5905 5905 5904 5904 5903 5903 5902 5902 5901 5900 5900 5899 5899 5898 5897 5896 5895 5894 5893 5892 5891 5890 5889 5888
5912 5914 5916 5917 5918 5920 5920 5921 5922 5920 5919 5918 5917 5917 5916 5915 5914 5913 5913 5912 5911 5910 5909 5908 5907 5906 5906 5905 5905 5904 5903 5903 5902 5902 5901 5900 5900 5899 5898 5897 5896 5895 5894 5893 5892 5891 5889 5888 5887
5909 5912 5913 5915 5917 5919 5919 5920 5921 5920 5919 5918 5918 5917 5916 5916 5915 5914 5913 5913 5912 5911 5910 5909 5908 5907 5906 5906 5905 5905 5904 5903 5903 5902 5901 5901 5900 5899 5898 5897 5896 5894 5893 5892 5891 5890 5889 5887 5886
5906 5910 5913 5914 5916 5918 5918 5918 5920 5919 5918 5918 5918 5917 5916 5916 5915 5914 5914 5913 5912 5911 5910 5909 5908 5908 5907 5906 5905 5905 5904 5904 5903 5902 5901 5900 5900 5899 5898 5896 5895 5894 5893 5892 5891 5890 5888 5886 5885
5903 5907 5911 5914 5916 5917 5915 5916 5918 5917 5917 5917 5917 5917 5916 5916 5915 5914 5914 5913 5912 5911 5910 5909 5909 5908 5907 5907 5906 5905 5905 5904 5903 5902 5901 5900 5899 5898 5897 5896 5895 5893 5892 5891 5890 5888 5887 5885 5883
5899 5902 5907 5911 5912 5914 5914 5915 5916 5915 5915 5916 5916 5916 5916 5915 5915 5914 5914 5913 5912 5911 5910 5909 5909 5908 5907 5907 5906 5905 5904 5903 5903 5902 5901 5899 5898 5897 5896 5895 5894 5893 5891 5890 5889 5887 5885 5884 5882
5895 5899 5902 5906 5908 5911 5913 5913 5915 5914 5914 5914 5915 5915 5915 5914 5914 5914 5913 5913 5912 5911 5910 5909 5909 5908 5907 5906 5905 5905 5904 5903 5902 5901 5900 5899 5898 5897 5895 5894 5892 5891 5890 5888 5887 5885 5883 5882 5880
5890 5894 5897 5901 5905 5908 5911 5914 5912 5912 5912 5912 5913 5913 5913 5913 5913 5913 5912 5912 5911 5910 5909 5909 5908 5907 5906 5905 5905 5904 5903 5902 5901 5900 5899 5898 5897 5895 5894 5892 5891 5889 5888 5886 5884 5883 5881 5879 5877
5885 5889 5893 5897 5900 5902 5907 5912 5908 5909 5909 5910 5911 5911 5911 5912 5912 5912 5911 5911 5910 5909 5909 5908 5907 5907 5906 5905 5904 5903 5902 5901 5900 5899 5898 5897 5895 5894 5892 5891 5889 5887 5886 5884 5882 5880 5879 5877 5874